Regional Weather Roundup
Issued by NWS Grand Forks, ND

Home | Current Version | Previous Version | Text Only | Print | Product List | Glossary On
Versions: 1 2 3 4 5 6 7 8 9 10 11 12 13 14 15 16 17 18 19 20 21 22 23 24 25 26 27 28 29 30 31 32 33 34 35 36 37 38 39 40 41 42 43 44 45 46 47 48 49 50
000
ASUS43 KFGF 031131
RWRFGF
PRAIRIE TO PINES  WEATHER ROUNDUP
NATIONAL WEATHER SERVICE EASTERN NORTH DAKOTA/GRAND FORKS ND
500 AM CST SAT DEC 03 2016

 **SATELLITE DATA USED TO AUGMENT SKY COVER AT AUTOMATED STATIONS**
 *****  WEATHER ACROSS EASTERN NORTH DAKOTA  *****

CITY           SKY/WX    TMP DP  RH WIND       PRES   REMARKS
GRAND FORKS    CLOUDY    28  20  71 S15       30.20  WCI  16
GRAND FRKS AFB CLOUDY    27  19  74 S15       30.19F WCI  15
GRAND FRKS NWS   N/A     27 N/A N/A S18         N/A  WCI  13
DEVILS LAKE    CLOUDY    26  24  92 S14       30.11F WCI  14
FARGO          CLOUDY    27  18  69 S9        30.24  WCI  18
WAHPETON ARPT  CLOUDY    27  19  74 S7        30.26S WCI  19
$$

 ***** WEATHER ACROSS CENTRAL AND WESTERN NORTH DAKOTA  *****

CITY           SKY/WX    TMP DP  RH WIND       PRES   REMARKS
BISMARCK       CLEAR     18  17  96 SE9       30.07F WCI   7
MINOT          CLEAR     22  20  92 SE7       29.95F WCI  13
JAMESTOWN      CLOUDY    26  22  84 S12       30.13F WCI  16
MINOT AFB      CLEAR     21  19  91 S13       29.95F WCI   8
GARRISON         N/A     25  24  96 S6        29.99F WCI  18
WILLISTON      CLEAR     23  18  81 S7        29.88F WCI  15
DICKINSON      CLEAR     17  14  88 S12       29.91F WCI   4
HETTINGER      CLEAR     19  16  88 SE8       29.97  WCI   9
$$

 *****  OTHER AIRPORT OBSERVATIONS IN OUR AREA  *****

CITY           SKY/WX    TMP DP  RH WIND       PRES   REMARKS
WALHALLA         N/A     27  27 100 S14       30.13F WCI  15
GRAFTON AIRPOR CLOUDY    27  23  86 S12G17    30.20F WCI  16
VALLEY CITY AR CLOUDY    25  25 100 S7        30.19S WCI  17
CANDO          CLOUDY    27  27 100 S18G24    30.09F WCI  13
CAVALIER APRT    N/A     27  23  86 S18       30.15F WCI  13
GWINNER        CLOUDY    28  27  93 SE6       30.21F WCI  22
SHEYENNE NWR     N/A     25  20  81 S2        29.95S
ROLLA          CLOUDY    23  23 100 S15       30.03F WCI  10
 ***** THE ABOVE OBSERVATIONS ARE NON NWS ARE NOT QUALITY
       CONTROLLED AND MAY MIS-REPORT RAIN FOR SNOW...
$$

  *****  WEATHER ACROSS NORTHERN MINNESOTA  *****

CITY           SKY/WX    TMP DP  RH WIND       PRES   REMARKS
FLAG ISLAND    CLOUDY    25  21  86 S3        30.19F
WARROAD        CLOUDY    27  21  80 S5        30.20S WCI  21
ROSEAU         CLOUDY    28  23  80 S8        30.19F WCI  20
HALLOCK        CLOUDY    28  25  86 S13       30.18F WCI  18
THF RVR FALLS  CLOUDY    26  20  77 SW12      30.22F WCI  16
BAUDETTE       CLOUDY    24  21  88 S5        30.21  WCI  18
WASKISH        CLOUDY    25  23  93 CALM      30.22S
CROOKSTON      CLOUDY    27  19  74 S14       30.23F WCI  15
STEPHEN NDAWN    N/A     28  23  80 S12         N/A  WCI  18
GREENBUSH NDAW   N/A     27  23  86 S9          N/A  WCI  17
$$
  *****  WEATHER ACROSS CENTRAL AND WEST MINNESOTA  *****

CITY           SKY/WX    TMP DP  RH WIND       PRES   REMARKS
FOSSTON        CLOUDY    23  18  80 S13       30.23S WCI  11
BEMIDJI        CLOUDY    24  18  80 S5        30.23S WCI  18
PARK RAPIDS    CLOUDY    24  16  71 SW5       30.22  WCI  18
ELBOW LAKE     CLOUDY    24  18  78 SW3       30.26F
WADENA         CLOUDY    23  18  80 SW6       30.24F WCI  16
DETROIT LAKES  CLOUDY    27  21  80 SW7       30.23F WCI  19
MOORHEAD       CLOUDY    25  18  74 S7        30.25F WCI  17
FERGUS FALLS   CLOUDY    25  18  74 S6        30.29F WCI  18
MORRIS MN      CLOUDY    27  19  74 SW5       30.26S WCI  21
STAPLES        CLOUDY    23  18  80 SW5       30.26S WCI  17
$$
  *****  WEATHER ELSEWHERE ACROSS MINNESOTA  *****

CITY           SKY/WX    TMP DP  RH WIND       PRES   REMARKS
DULUTH         CLOUDY    27  24  89 W5        30.22F WCI  22
INTRNTL FALLS  CLOUDY    24  20  84 SW6       30.22S WCI  17
ELY            CLOUDY    21  21 100 CALM      30.22S
CLOQUET        CLOUDY    27  21  80 W5        30.24S WCI  21
WHEATON        CLOUDY   N/A N/A N/A S5        30.28S
BRAINERD       CLOUDY    25  20  81 SW6       30.26S WCI  18
HIBBING        CLOUDY    23  19  85 W5        30.24S WCI  17
ALEXANDRIA     CLOUDY    24  19  81 W8        30.26  WCI  15
SAINT CLOUD    CLOUDY    28  22  78 SW7       30.29  WCI  21
MINNEAPOLIS    CLOUDY    29  21  72 W7        30.31  WCI  22
$$

  *****  WEATHER ACROSS SOUTH DAKOTA  *****

CITY           SKY/WX    TMP DP  RH WIND       PRES   REMARKS
SIOUX FALLS    CLOUDY    31  27  85 S6        30.27F
BROOKINGS      CLOUDY    25  21  85 SE8       30.24F WCI  16
WATERTOWN      CLOUDY    21  18  88 S7        30.22  WCI  12
HURON          CLEAR     24  23  96 SE8       30.22F WCI  15
SISSETON         N/A     22  17  81 S5        30.24S WCI  16
ABERDEEN       CLOUDY    28  24  85 S10       30.21  WCI  19
MITCHELL       CLEAR     27  26  96 SE10      30.24F WCI  17
PIERRE         CLEAR     20  18  92 SE8       30.11F WCI  10
MOBRIDGE       CLOUDY    26  24  92 S13       30.08F WCI  15
RAPID CITY     CLEAR     21  17  84 S7        29.97F WCI  12
$$

  *****  SOME WEATHER IN NEARBY STATES *****

CITY           SKY/WX    TMP DP  RH WIND       PRES   REMARKS
GLASGOW MT     LGT SNOW  27  25  92 S9        29.79F FOG     WCI  18
GREAT FALLS MT CLOUDY    32  22  66 SW20      29.81  WCI  20
CHEYENNE WY    CLOUDY    16   9  74 W12       30.00F WCI   3
SCOTTSBLUFF NE CLOUDY    27  21  78 W5        30.07F WCI  22
OMAHA NE       PTCLDY    24  19  81 CALM      30.33F
DES MOINES IA  CLOUDY    36  29  75 W6        30.35S
DAVENPORT IA   CLOUDY    32  25  75 NW9       30.37S WCI  24
CHICAGO IL     CLOUDY    32  23  69 W9        30.34R WCI  24
EAU CLAIRE WI  CLOUDY    30  25  81 SW8       30.29R WCI  22
LA CROSSE WI   CLOUDY    32  22  66 W7        30.34
$$

  *****  SOME NATIONAL WEATHER *****

CITY           SKY/WX    TMP DP  RH WIND       PRES   REMARKS
LA GUARDIA NY  PTCLDY    43  28  55 NW21G30   29.96R
RALEIGH NC     CLOUDY    36  28  73 CALM      30.23S
ATLANTA GA     MOCLDY    42  32  67 W5        30.26R
NEW ORLEANS LA CLOUDY    57  51  80 E13       30.10F
OKLAHOMA CITY  LGT RAIN  46  44  93 E7        30.18F
ALBUQUERQUE NM FLURRIES  33  31  92 E3        30.07F
SALT LAKE CITY CLOUDY    28  19  69 SE10      30.28S WCI  19
LOS ANGELES CA CLEAR     49  19  30 E3        30.08F
BOISE ID       CLOUDY    34  23  64 E6        30.24
SEATTLE WA     MOCLDY    45  42  89 SW14      30.23R
$$

*** WEATHER ACROSS MANITOBA...SASKATCHEWAN AND ONTARIO ***
                ***ONTARIO***

CITY           SKY/WX    TMP DP  RH WIND       PRES   REMARKS
GERALDTON      LGT SNOW  21  21 100 VRB2      30.21S
THUNDER BAY    CLOUDY    27  25  93 W2        30.25S
SIOUX LOOKOUT  FLURRIES  23  19  86 VRB2      30.20S
TORONTO        PTCLDY    36  28  75 NW12      30.12R
BIG TROUT LK   LGT SNOW  10   7  85 W2        30.26R
PICKLE LAKE    FLURRIES  18  16  93 SE2       30.21
DRYDEN         CLOUDY    19  18  93 SW8       30.20S WCI   9
KENORA         FLURRIES  19  19 100 VRB2      30.18
$$
                *** MANITOBA***

CITY           SKY/WX    TMP DP  RH WIND       PRES   REMARKS
BRANDON        FLURRIES  25  23  93 SE9       30.00F WCI  15
DAUPHIN        FLURRIES  28  25  86 E6        29.98F WCI  22
ISLAND LAKE    NOT AVBL
PILOT MOUND      N/A     25  23  93 S20         N/A  WCI  11
THE PAS        FLURRIES  28  27  93 SE14      29.96F WCI  17
THOMPSON       CLOUDY    16  14  93 VRB2      30.09F
WINNIPEG       FLURRIES  27  25  93 S12       30.15F WCI  16
LYNN LAKE      CLOUDY    19  19 100 S7        29.94F WCI  10
CHURCHILL      CLEAR      1  -2  85 SW9       30.14F WCI -14
GILLAM         CLEAR     -2  -8  78 S2        30.18F
$$
                ***SASKATCHEWAN***

CITY           SKY/WX    TMP DP  RH WIND       PRES   REMARKS
ESTEVAN        PTCLDY    23  19  86 S8        29.86F WCI  14
KINDERSLEY     PTCLDY    16  14  93 N7        29.62F WCI   6
LLOYDMINSTER   CLOUDY    21  21 100 S5        29.69R WCI  15
PRINCE ALBERT  FLURRIES  27  23  86 E10       29.77F WCI  17
REGINA         PTCLDY    18  16  93 SE13      29.76F WCI   4
YORKTON        CLOUDY    27  25  93 SE14G20   29.86F FOG     WCI  15
N. BATTLEFORD  CLOUDY    25  25 100 SE9       29.72F WCI  15
LA RONGE       CLOUDY    28  23  80 S10       29.81F WCI  19
SASKATOON      CLOUDY    25  23  93 E10       29.70F FOG     WCI  15
SWIFT CURRENT  CLOUDY    32  28  86 SW18      29.62F WCI  20
$$
NOTE: THESE ARE AUTOMATED STATIONS WITH LIMITED QUALITY CONTROL
      "FAIR" INDICATES FEW OR NO CLOUDS BELOW 12,000 FEET WITH NO
      SIGNIFICANT WEATHER AND/OR OBSTRUCTIONS TO VISIBILITY.
      SKY/WX - SKY CONDITION AND SIGNIFICANT WEATHER.
      TMP - AIR TEMPERATURE.    DP   - DEWPOINT TEMPERATURE.
      RH  - RELATIVE HUMIDITY.  PRES - PRESSURE.
      HX  - HEAT INDEX.         WCI  - WIND CHILL INDEX.
$



USA.gov is the U.S. government's official web portal to all federal, state and local government web resources and services.